Location: Hac?musa Deresi
(39.1694°N, 32.2508°E)
Time: 16:24:05
(UTC+00:00)

Cosmos 2237 Rocket - Pass Details

Date: 22 April 2026
Orbit: 833 x 850 km, 71.0° (Epoch: 11 May)

Event Time Altitude Azimuth Distance (km) Brightness Sun altitude
Rises 17:52:34 0° 229° (SW) 3,392 5.6 -14.6°
Reaches altitude 10° 17:55:16 10° 239° (WSW) 2,463 5.0 -15.0°
Maximum altitude 18:00:16 32° 302° (WNW) 1,428 4.2 -15.9°
Drops below altitude 10° 18:05:20 10° 4° (N) 2,482 5.0 -16.7°
Sets 18:08:04 0° 15° (NNE) 3,422 5.6 -17.2°
